Dewpoint
71 70 71 71 64 62 51 50 49 49 51 53 53 53 53 55 55 53 53 54 62 64 69 71 75 75 75 74 74 74 73 73 74 74 73 73 73 72 73 72 73 72 73 74 74 74 75 75 75
69 71 72 70 61 52 50 50 49 51 51 52 53 52 54 54 52 50 51 58 63 64 66 70 76 75 75 74 74 74 74 74 74 74 74 73 73 73 74 73 73 72 73 74 74 75 75 74 74
72 70 70 64 57 49 50 50 50 50 52 53 51 54 55 54 51 51 53 61 61 62 65 71 75 75 74 75 74 75 74 74 74 74 74 73 74 73 72 73 73 73 73 74 73 75 75 74 73
68 72 68 59 48 50 51 47 49 50 51 53 53 54 55 58 53 51 57 60 62 66 67 74 75 74 74 74 73 75 74 74 73 73 72 72 73 72 68 71 72 73 73 73 73 73 75 75 74
68 65 61 53 50 48 48 48 48 48 48 50 52 55 55 58 54 52 58 60 64 65 68 71 76 74 74 74 74 74 74 74 74 72 70 71 71 71 70 69 71 73 74 74 73 74 74 75 74
64 63 55 50 49 52 50 51 52 53 50 48 51 54 55 58 54 53 56 58 63 62 67 70 75 75 74 74 74 74 74 73 73 70 67 69 70 72 71 71 71 73 73 74 73 73 74 74 74
60 61 56 49 53 56 50 52 53 53 50 51 55 56 56 55 55 55 55 57 61 63 64 68 70 73 75 75 74 74 74 73 73 70 70 69 68 70 70 71 70 73 73 73 73 74 73 73 74
60 58 57 53 51 53 50 51 53 53 53 52 57 57 53 55 55 55 56 59 59 61 62 64 66 68 69 71 74 73 74 74 73 73 71 69 67 67 65 68 70 71 72 72 73 73 73 72 73
54 54 56 55 53 55 51 50 50 52 53 51 53 58 57 56 54 59 58 58 62 61 60 62 63 66 70 71 72 74 74 74 73 70 70 70 71 69 66 71 70 70 71 73 73 73 73 73 73
51 57 57 58 56 53 52 54 53 51 55 52 52 57 57 57 59 57 57 58 61 58 63 65 64 66 69 68 73 74 73 74 74 71 72 73 73 73 68 69 70 71 72 73 73 73 73 72 70
55 56 57 56 57 54 51 51 49 53 53 58 60 57 58 58 59 59 59 58 57 61 62 63 63 65 65 69 71 74 74 75 72 74 71 72 72 73 71 72 69 72 72 73 71 72 70 69 70
54 57 58 60 55 48 52 49 49 48 53 56 59 58 60 58 56 58 57 58 56 60 59 58 61 68 65 66 70 73 75 74 73 76 74 74 74 75 75 73 72 73 72 72 72 70 70 70 70
56 57 55 49 49 51 48 50 51 49 50 49 55 57 58 59 59 56 62 57 57 56 59 58 65 73 71 75 73 71 72 74 74 73 75 74 75 75 75 74 76 75 76 72 71 71 71 71 70
55 59 56 49 49 48 47 48 48 51 51 51 54 57 57 59 56 63 65 63 62 59 58 64 65 70 68 73 76 76 72 73 74 74 74 75 76 75 74 75 75 75 74 73 73 72 71 71 68
53 53 52 48 48 48 48 51 48 50 52 51 55 57 57 57 58 62 63 61 59 58 61 61 66 63 71 73 74 74 72 72 72 73 75 76 76 75 75 75 75 75 75 75 75 74 72 69 68
50 51 49 50 48 49 48 53 49 52 52 53 55 56 57 57 58 54 56 54 58 64 63 62 60 61 69 70 75 71 72 72 73 74 74 76 76 75 75 74 76 77 76 75 74 74 73 73 70
54 51 50 52 58 49 49 53 49 51 52 55 55 55 61 64 60 57 57 62 65 65 67 64 67 66 70 75 73 71 71 73 72 76 75 77 76 77 73 76 75 76 76 76 73 75 73 72 71
49 48 47 52 53 50 48 50 46 49 52 54 55 55 57 56 56 57 56 64 66 66 66 69 67 71 72 75 74 71 72 71 73 75 75 76 75 77 77 77 76 76 76 74 73 73 73 73 71
47 47 46 49 52 51 46 48 45 48 49 51 54 55 54 55 57 56 54 56 56 61 65 67 68 73 74 72 70 70 68 70 72 74 78 79 75 77 78 75 76 77 75 75 74 74 73 71 72
46 48 48 50 45 44 46 45 46 46 47 50 52 51 52 51 56 57 56 55 53 59 65 69 70 72 72 70 73 74 75 73 71 72 73 77 77 77 77 78 77 77 77 76 75 74 72 72 72
43 46 50 43 44 40 45 44 47 45 46 49 49 52 52 52 51 53 54 53 54 61 64 68 72 72 73 73 74 75 75 76 75 75 74 74 77 76 78 78 77 77 77 76 75 75 75 73 73
43 41 44 43 42 47 44 51 47 46 45 47 47 47 49 51 51 53 52 51 52 60 62 67 70 72 72 75 73 75 72 71 73 73 74 75 76 77 77 78 78 78 77 77 77 76 75 75 72
36 39 43 48 50 50 43 48 46 48 43 45 46 46 45 49 49 49 50 51 52 57 58 63 70 73 75 74 77 73 74 71 69 75 77 79 80 78 76 78 78 79 77 78 76 77 76 76 75
37 44 47 44 43 46 46 49 48 44 45 45 45 46 45 45 47 50 50 53 52 55 57 60 70 74 75 76 75 77 73 74 74 75 75 74 75 77 79 78 79 79 78 77 77 77 76 76 75
47 48 47 42 41 41 42 45 43 43 44 46 46 46 47 46 45 45 48 49 52 55 57 61 69 72 73 73 74 75 76 77 77 76 73 72 73 74 78 79 79 78 79 78 77 77 77 76 76
42 51 47 41 42 40 46 40 37 37 40 48 46 46 46 46 46 45 48 51 55 57 58 60 68 72 72 73 75 76 77 73 73 75 72 73 75 74 79 78 79 79 78 78 78 76 76 74 76
35 36 50 46 47 48 48 39 38 41 40 43 44 46 50 49 46 51 50 52 54 55 59 61 68 70 71 70 75 77 77 76 73 76 76 72 76 73 79 78 79 79 78 77 78 76 75 77 75
33 34 42 43 41 39 39 45 39 42 44 44 43 46 47 49 48 50 50 51 52 51 54 57 65 66 69 69 73 74 75 77 76 78 78 77 78 78 78 80 79 77 74 75 75 76 75 75 76
32 41 38 36 43 45 43 37 48 46 46 45 44 45 46 48 49 50 52 52 52 53 55 55 60 64 66 69 73 74 75 75 76 75 77 78 77 79 80 77 76 76 74 75 77 77 76 74 73
37 42 46 39 40 43 45 46 43 49 46 45 47 47 49 49 51 51 53 56 55 55 55 67 65 66 68 73 75 75 75 75 73 74 75 79 79 79 82 80 75 75 75 76 75 73 73 73 73
Lifted_Index
-3 -3 -4 -4 -3 -2 -2 -1 -1 -1 -1 -1 -1 -1 -1 -1 -0 1 3 2 1 0 -1 -2 -2 -3 -3 -3 -3 -3 -3 -3 -3 -3 -3 -3 -2 -3 -3 -3 -3 -3 -3 -3 -3 -4 -4 -4 -3
-3 -4 -4 -4 -3 -1 -1 -1 -1 -0 -0 -0 -0 -1 -1 -0 1 2 2 1 0 0 -0 -1 -2 -3 -3 -3 -3 -3 -3 -3 -3 -3 -3 -3 -3 -3 -3 -3 -3 -3 -3 -3 -3 -3 -4 -3 -3
-4 -4 -5 -4 -2 -1 -0 0 0 0 -0 -0 -0 -0 -1 0 1 2 2 0 -0 -0 -1 -2 -2 -3 -3 -3 -3 -3 -3 -3 -3 -3 -3 -2 -2 -2 -2 -2 -3 -3 -3 -3 -3 -3 -3 -4 -3
-4 -5 -4 -3 -1 -0 0 1 1 0 0 -0 -0 -0 0 0 1 2 1 -1 -1 -1 -1 -2 -3 -3 -3 -3 -3 -3 -3 -3 -3 -2 -2 -2 -2 -1 -1 -1 -2 -3 -3 -3 -3 -3 -3 -3 -3
-4 -4 -3 -2 -1 -0 0 0 1 0 0 -0 -0 -0 0 1 1 1 0 -1 -2 -2 -2 -2 -3 -3 -3 -3 -3 -3 -3 -2 -2 -1 -0 -0 -1 -1 -1 -1 -2 -3 -3 -3 -3 -3 -3 -3 -3
-3 -2 -1 -1 -2 -1 -0 -0 -0 -0 -0 -0 -0 -0 0 1 1 1 -0 -1 -2 -2 -2 -2 -3 -3 -3 -3 -2 -3 -2 -2 -1 -0 1 1 0 -1 -1 -1 -2 -2 -3 -3 -3 -3 -3 -3 -3
-3 -2 -1 -1 -2 -1 -1 -1 -1 -1 -1 -1 -1 -1 -0 1 1 1 -0 -1 -2 -2 -2 -2 -2 -3 -3 -3 -2 -2 -2 -2 -1 -0 1 1 1 1 -0 -1 -2 -2 -3 -3 -3 -3 -3 -3 -3
-3 -2 -2 -2 -2 -1 -1 -1 -1 -1 -1 -1 -1 -1 -0 1 1 1 -0 -1 -1 -2 -1 -1 -2 -2 -3 -3 -3 -2 -3 -2 -1 -1 0 1 1 1 1 0 -1 -2 -2 -2 -3 -3 -2 -2 -3
-2 -2 -1 -1 -1 -1 -1 -1 -1 -1 -1 -1 -1 -1 -1 -0 0 -0 -1 -1 -2 -2 -1 -1 -2 -2 -2 -3 -3 -2 -3 -3 -2 -0 0 0 0 1 1 0 -1 -1 -2 -2 -2 -3 -2 -2 -2
-1 -1 -0 -0 -1 -2 -2 -1 -1 -1 -1 -1 -1 -1 -1 -1 -1 -1 -1 -1 -2 -2 -2 -2 -2 -2 -3 -3 -3 -3 -3 -3 -2 -0 -0 -0 -0 0 0 0 -0 -1 -2 -2 -2 -2 -2 -2 -2
-1 -1 -1 -1 -2 -2 -2 -1 -1 -1 -1 -1 -1 -1 -2 -2 -1 -1 -1 -2 -2 -2 -2 -2 -2 -2 -2 -3 -3 -3 -3 -3 -2 -2 -2 -1 -2 -2 -1 -1 -1 -1 -2 -2 -2 -2 -2 -2 -2
-2 -1 -1 -2 -2 -2 -1 -1 -1 -0 -0 -1 -1 -1 -2 -2 -1 -1 -2 -2 -2 -2 -2 -2 -2 -2 -2 -3 -4 -4 -3 -3 -2 -3 -3 -3 -3 -3 -3 -2 -2 -2 -2 -2 -2 -2 -2 -2 -1
-2 -2 -2 -2 -2 -1 -1 -1 -0 -0 -0 -0 -1 -2 -2 -2 -2 -2 -2 -2 -2 -2 -2 -2 -3 -3 -3 -3 -4 -4 -3 -2 -2 -2 -3 -3 -4 -4 -3 -3 -3 -3 -3 -3 -3 -2 -2 -2 -2
-2 -2 -2 -2 -1 -1 -1 -0 -0 -0 -0 -0 -1 -2 -2 -2 -2 -2 -3 -3 -2 -2 -2 -3 -3 -3 -3 -4 -4 -4 -4 -3 -2 -3 -3 -4 -4 -4 -4 -4 -4 -4 -3 -3 -3 -2 -2 -2 -1
-2 -2 -2 -2 -1 -1 -0 -0 -0 -0 -0 -1 -1 -2 -2 -2 -2 -3 -2 -3 -3 -3 -3 -3 -3 -3 -4 -4 -5 -5 -4 -3 -3 -4 -5 -5 -4 -4 -4 -4 -4 -4 -4 -3 -3 -3 -2 -2 -2
-2 -2 -2 -2 -2 -1 -1 -1 -0 -0 -0 -1 -1 -1 -2 -2 -2 -2 -2 -3 -3 -3 -3 -3 -3 -3 -4 -5 -5 -5 -4 -4 -4 -5 -5 -5 -5 -4 -4 -4 -5 -5 -4 -4 -4 -3 -3 -3 -3
-1 -1 -1 -2 -2 -1 -1 -1 -0 -0 -0 -1 -1 -1 -1 -1 -1 -1 -2 -2 -2 -2 -3 -4 -4 -4 -4 -4 -4 -4 -4 -4 -4 -5 -5 -5 -5 -5 -4 -4 -5 -5 -5 -4 -4 -4 -4 -3 -3
-1 -1 -1 -1 -2 -2 -1 -1 -0 -0 -0 -0 -0 -1 -1 -1 -1 -1 -1 -2 -2 -2 -3 -4 -4 -4 -4 -4 -4 -3 -3 -3 -4 -5 -5 -5 -5 -5 -5 -5 -5 -5 -5 -5 -4 -4 -4 -4 -4
-2 -1 -1 -1 -1 -2 -2 -2 -1 -0 -0 -0 -0 -0 -0 -0 -0 -0 -1 -1 -1 -2 -3 -4 -4 -4 -4 -4 -3 -3 -3 -3 -3 -4 -5 -5 -5 -5 -5 -5 -5 -5 -5 -5 -5 -5 -4 -4 -4
-1 -1 -1 -1 -1 -1 -1 -1 -1 -0 -0 -0 -0 0 0 0 0 -0 -0 -0 -1 -2 -4 -4 -4 -4 -4 -4 -3 -3 -3 -3 -3 -4 -4 -5 -5 -6 -6 -6 -6 -5 -5 -5 -5 -5 -5 -5 -5
-1 -1 -2 -1 -1 -1 -1 -1 -1 -0 0 -0 -0 0 0 0 0 -0 -0 -0 -1 -2 -4 -4 -4 -4 -4 -4 -4 -3 -4 -4 -4 -4 -4 -4 -5 -6 -6 -6 -6 -6 -6 -6 -6 -5 -5 -5 -4
-1 -1 -2 -2 -1 -1 -1 -1 -1 -0 -0 -0 -0 -0 -0 0 -0 -0 -0 -0 -1 -2 -3 -4 -4 -4 -4 -4 -4 -4 -3 -4 -4 -4 -4 -5 -6 -6 -6 -6 -6 -6 -6 -6 -6 -6 -5 -4 -4
-1 -1 -2 -1 -1 -1 -1 -1 -2 -1 -0 0 0 0 0 -0 -0 -0 -1 -1 -1 -1 -2 -3 -4 -4 -4 -4 -4 -4 -4 -3 -4 -5 -5 -6 -6 -6 -7 -7 -7 -7 -6 -6 -6 -6 -5 -5 -4
-1 -1 -1 -1 -1 -1 -1 -2 -2 -2 -1 -0 0 0 0 0 -0 -0 -1 -1 -1 -1 -1 -2 -4 -4 -5 -5 -5 -5 -4 -4 -4 -5 -5 -6 -6 -7 -7 -7 -7 -7 -7 -6 -6 -6 -5 -5 -5
-2 -1 -1 -1 -1 -1 -1 -1 -2 -2 -1 -1 -0 0 0 0 -0 -0 -0 -1 -1 -1 -1 -2 -4 -5 -5 -5 -5 -5 -5 -5 -5 -5 -5 -5 -6 -7 -7 -7 -7 -7 -7 -6 -6 -6 -5 -5 -5
-1 -1 -0 -0 -0 -1 -1 -1 -1 -1 -1 -1 -1 -0 -0 -0 -0 -0 -1 -1 -1 -1 -2 -3 -4 -5 -5 -5 -5 -6 -6 -5 -5 -5 -5 -5 -6 -6 -7 -7 -7 -7 -7 -7 -6 -6 -6 -5 -5
-0 -0 -0 -0 -0 -0 -1 -1 -1 -1 -1 -1 -1 -1 -1 -0 -0 -0 -1 -1 -1 -1 -2 -2 -4 -5 -5 -5 -6 -6 -6 -6 -6 -6 -6 -6 -6 -6 -7 -7 -7 -7 -7 -7 -7 -6 -5 -5 -5
0 0 -0 -1 -1 -0 -0 -1 -1 -2 -2 -1 -1 -1 -1 -1 -0 -0 -1 -1 -1 -1 -1 -2 -3 -5 -5 -6 -6 -7 -7 -7 -7 -7 -7 -6 -6 -7 -7 -7 -7 -6 -6 -6 -6 -6 -5 -5 -5
0 -0 -0 -0 -1 -1 -0 -1 -1 -2 -2 -2 -2 -1 -1 -1 -1 -1 -1 -1 -1 -1 -1 -2 -3 -4 -5 -6 -6 -7 -7 -7 -7 -7 -7 -7 -7 -7 -8 -8 -7 -6 -5 -6 -6 -6 -5 -5 -5
-0 -0 0 -0 -0 -1 -0 -0 -1 -2 -2 -2 -2 -2 -2 -1 -1 -1 -1 -2 -2 -1 -1 -2 -2 -3 -4 -6 -7 -7 -7 -7 -7 -7 -7 -8 -8 -8 -8 -8 -7 -6 -6 -6 -6 -5 -5 -5 -5